Location: Newark
(42.8481°N, 0.4872°E)
Time: 08:11:48
(UTC+00:00)

Vanguard 3 - Pass Details

Date: 27 October 2020
Orbit: 508 x 3262 km, 33.3° (Epoch: 28 November)

Event Time Altitude Azimuth Distance (km) Brightness Sun altitude
Rises 12:43:55 0° 280° (W) 6,943 12.0 32.3°
Reaches altitude 10° 12:50:45 10° 266° (W) 5,540 11.8 31.9°
Maximum altitude 13:00:20 19° 229° (SW) 4,023 12.1 31.3°
Drops below altitude 10° 13:07:35 10° 188° (S) 4,005 12.1 30.8°
Sets 13:11:27 0° 171° (S) 4,539 11.7 30.5°
